CAPE
0 0 0 0 0 0 0 0 0 0 0 0 0 0 0 0 0 0 0 0 0 0 0 0 0 0 0 0 0 0 0 0 0 0 0 0 0 0 0 0 0 0 0 0 0
0 0 0 0 0 0 0 0 0 0 0 0 0 0 0 0 0 0 0 0 0 0 0 0 0 0 0 0 0 0 0 0 0 0 0 0 0 0 0 0 0 0 0 0 0
0 0 0 0 0 0 0 0 0 0 0 0 0 0 0 0 0 0 0 0 0 0 0 0 0 0 0 0 0 0 0 0 0 0 0 0 0 0 0 0 0 0 0 0 0
0 0 0 0 0 0 0 0 0 0 0 0 0 0 0 0 0 0 0 0 0 0 0 0 0 0 0 0 0 0 0 0 0 0 0 0 0 0 0 0 0 0 0 0 0
0 0 0 0 0 0 0 0 0 0 0 0 0 0 0 0 0 0 0 0 0 0 0 0 0 0 0 0 0 0 0 0 0 0 0 0 0 0 0 0 0 0 0 0 0
0 0 0 0 0 0 0 0 0 0 0 0 0 0 0 0 0 0 0 0 0 0 0 0 0 0 0 0 0 0 0 0 0 0 0 0 0 0 0 0 0 0 0 0 0
0 0 0 0 0 0 0 0 0 0 0 0 0 0 0 0 0 0 0 0 0 0 0 0 0 0 0 0 0 0 0 0 0 0 0 0 0 0 0 0 0 0 0 0 0
0 0 0 0 0 0 0 0 0 0 0 0 0 0 0 0 0 0 0 0 0 0 0 0 0 0 0 0 0 0 0 0 0 0 0 0 0 0 0 0 0 0 0 0 0
0 0 0 0 0 0 0 0 0 0 0 0 0 0 0 0 0 0 0 0 0 0 0 0 0 0 0 0 0 0 0 0 0 0 0 0 0 0 0 0 0 0 0 0 0
0 0 0 0 0 0 0 0 0 0 0 0 0 0 0 0 0 0 0 0 0 0 0 0 0 0 0 0 0 0 0 0 0 0 0 0 0 0 0 0 0 0 0 0 0
0 0 0 0 0 0 0 0 0 0 0 0 0 0 0 0 0 0 0 0 0 0 0 0 0 0 0 0 0 0 0 0 0 0 0 0 0 0 0 0 0 0 0 0 0
0 0 0 0 0 0 0 0 0 0 0 0 0 0 0 0 0 0 0 0 0 0 0 0 0 0 0 0 0 0 0 0 0 0 0 0 0 0 0 0 0 0 0 0 0
0 0 0 0 0 0 0 0 0 0 0 0 0 0 0 0 0 0 0 0 0 0 0 0 0 0 0 0 0 0 0 0 0 0 0 0 0 0 0 0 0 0 0 0 0
0 0 0 0 0 0 0 0 0 0 0 0 0 0 0 0 0 0 0 0 0 0 0 0 0 0 0 0 0 0 0 0 0 0 0 0 0 0 0 0 0 0 0 0 0
0 0 0 0 0 0 0 0 0 0 0 0 0 0 0 0 0 0 0 0 0 0 0 0 0 0 0 0 0 0 0 0 0 0 0 0 0 0 0 0 0 0 0 0 0
0 0 0 0 0 0 0 0 0 0 0 0 0 0 0 0 0 0 0 0 0 0 0 0 0 0 0 0 0 0 0 0 0 0 0 0 0 0 0 0 0 0 0 0 0
0 0 0 0 0 0 0 0 0 0 0 0 0 0 0 0 0 0 0 0 0 0 0 0 0 0 0 0 0 0 0 0 0 0 0 0 0 0 0 0 0 0 0 0 0
0 0 0 0 0 0 0 0 0 0 0 0 0 0 0 0 0 0 0 0 0 0 0 0 0 0 0 0 0 0 0 0 0 0 0 0 0 0 0 0 0 0 0 0 0
0 0 0 0 0 0 0 0 0 0 0 0 0 0 0 0 0 0 0 0 0 0 0 0 0 0 0 0 0 0 0 0 0 0 0 0 0 0 0 0 0 0 0 0 0
0 0 0 0 0 0 0 0 0 0 0 0 0 0 0 0 0 0 0 0 0 0 0 0 0 0 0 0 0 0 0 0 0 0 0 0 0 0 0 0 0 0 0 0 0
0 0 0 0 0 0 0 0 0 0 0 0 0 0 0 0 0 0 0 0 0 0 0 0 0 0 0 0 0 0 0 0 0 0 0 0 0 0 0 0 0 0 0 0 0
0 0 0 0 0 0 0 0 0 0 0 0 0 0 0 0 0 0 0 0 0 0 0 0 0 0 0 0 0 0 0 0 0 0 0 0 0 0 0 0 0 0 0 0 0
0 0 0 0 0 0 0 0 0 0 0 0 0 0 0 0 0 0 0 0 0 0 0 0 0 0 0 0 0 0 0 0 0 0 0 0 0 0 0 0 0 0 0 0 0
0 0 0 0 0 0 0 0 0 0 0 0 0 0 0 0 0 0 0 0 0 0 0 0 0 0 0 0 0 0 0 0 0 0 0 0 0 0 0 0 0 0 0 0 0
0 0 0 0 0 0 0 0 0 0 0 0 0 0 0 0 0 0 0 0 0 0 0 0 0 0 0 0 0 0 0 0 0 0 0 0 0 0 0 0 0 0 0 0 0
0 0 0 0 0 0 0 0 0 0 0 0 0 0 0 0 0 0 0 0 0 0 0 0 0 0 0 0 0 0 0 0 0 0 0 0 0 0 0 0 0 0 0 0 0
0 0 0 0 0 0 0 0 0 0 0 0 0 0 0 0 0 0 0 0 0 0 0 0 0 0 0 0 0 0 0 0 0 0 0 0 0 0 0 0 0 0 0 0 0
CIN
0 0 0 0 0 0 0 0 0 0 0 0 0 0 0 0 0 0 0 0 0 0 0 0 0 0 0 0 0 0 0 0 0 0 0 0 0 0 0 0 0 0 0 0 0
0 0 0 0 0 0 0 0 0 0 0 0 0 0 0 0 0 0 0 0 0 0 0 0 0 0 0 0 0 0 0 0 0 0 0 0 0 0 0 0 0 0 0 0 0
0 0 0 0 0 0 0 0 0 0 0 0 0 0 0 0 0 0 0 0 0 0 0 0 0 0 0 0 0 0 0 0 0 0 0 0 0 0 0 0 0 0 0 0 0
0 0 0 0 0 0 0 0 0 0 0 0 0 0 0 0 0 0 0 0 0 0 0 0 0 0 0 0 0 0 0 0 0 0 0 0 0 0 0 0 0 0 0 0 0
0 0 0 0 0 0 0 0 0 0 0 0 0 0 0 0 0 0 0 0 0 0 0 0 0 0 0 0 0 0 0 0 0 0 0 0 0 0 0 0 0 0 0 0 0
0 0 0 0 0 0 0 0 0 0 0 0 0 0 0 0 0 0 0 0 0 0 0 0 0 0 0 0 0 0 0 0 0 0 0 0 0 0 0 0 0 0 0 0 0
0 0 0 0 0 0 0 0 0 0 0 0 0 0 0 0 0 0 0 0 0 0 0 0 0 0 0 0 0 0 0 0 0 0 0 0 0 0 0 0 0 0 0 0 0
0 0 0 0 0 0 0 0 0 0 0 0 0 0 0 0 0 0 0 0 0 0 0 0 0 0 0 0 0 0 0 0 0 0 0 0 0 0 0 0 0 0 0 0 0
0 0 0 0 0 0 0 0 0 0 0 0 0 0 0 0 0 0 0 0 0 0 0 0 0 0 0 0 0 0 0 0 0 0 0 0 0 0 0 0 0 0 0 0 0
0 0 0 0 0 0 0 0 0 0 0 0 0 0 0 0 0 0 0 0 0 0 0 0 0 0 0 0 0 0 0 0 0 0 0 0 0 0 0 0 0 0 0 0 0
0 0 0 0 0 0 0 0 0 0 0 0 0 0 0 0 0 0 0 0 0 0 0 0 0 0 0 0 0 0 0 0 0 0 0 0 0 0 0 0 0 0 0 0 0
0 0 0 0 0 0 0 0 0 0 0 0 0 0 0 0 0 0 0 0 0 0 0 0 0 0 0 0 0 0 0 0 0 0 0 0 0 0 0 0 0 0 0 0 0
0 0 0 0 0 0 0 0 0 0 0 0 0 0 0 0 0 0 0 0 0 0 0 0 0 0 0 0 0 0 0 0 0 0 0 0 0 0 0 0 0 0 0 0 0
0 0 0 0 0 0 0 0 0 0 0 0 0 0 0 0 0 0 0 0 0 0 0 0 0 0 0 0 0 0 0 0 0 0 0 0 0 0 0 0 0 0 0 0 0
0 0 0 0 0 0 0 0 0 0 0 0 0 0 0 0 0 0 0 0 0 0 0 0 0 0 0 0 0 0 0 0 0 0 0 0 0 0 0 0 0 0 0 0 0
0 0 0 0 0 0 0 0 0 0 0 0 0 0 0 0 0 0 0 0 0 0 0 0 0 0 0 0 0 0 0 0 0 0 0 0 0 0 0 0 0 0 0 0 0
0 0 0 0 0 0 0 0 0 0 0 0 0 0 0 0 0 0 0 0 0 0 0 0 0 0 0 0 0 0 0 0 0 0 0 0 0 0 0 0 0 0 0 0 0
0 0 0 0 0 0 0 0 0 0 0 0 0 0 0 0 0 0 0 0 0 0 0 0 0 0 0 0 0 0 0 0 0 0 0 0 0 0 0 0 0 0 0 0 0
0 0 0 0 0 0 0 0 0 0 0 0 0 0 0 0 0 0 0 0 0 0 0 0 0 0 0 0 0 0 0 0 0 0 0 0 0 0 0 0 0 0 0 0 0
0 0 0 0 0 0 0 0 0 0 0 0 0 0 0 0 0 0 0 0 0 0 0 0 0 0 0 0 0 0 0 0 0 0 0 0 0 0 0 0 0 0 0 0 0
0 0 0 0 0 0 0 0 0 0 0 0 0 0 0 0 0 0 0 0 0 0 0 0 0 0 0 0 0 0 0 0 0 0 0 0 0 0 0 0 0 0 0 0 0
0 0 0 0 0 0 0 0 0 0 0 0 0 0 0 0 0 0 0 0 0 0 0 0 0 0 0 0 0 0 0 0 0 0 0 0 0 0 0 0 0 0 0 0 0
0 0 0 0 0 0 0 0 0 0 0 0 0 0 0 0 0 0 0 0 0 0 0 0 0 0 0 0 0 0 0 0 0 0 0 0 0 0 0 0 0 0 0 0 0
0 0 0 0 0 0 0 0 0 0 0 0 0 0 0 0 0 0 0 0 0 0 0 0 0 0 0 0 0 0 0 0 0 0 0 0 0 0 0 0 0 0 0 0 0
0 0 0 0 0 0 0 0 0 0 0 0 0 0 0 0 0 0 0 0 0 0 0 0 0 0 0 0 0 0 0 0 0 0 0 0 0 0 0 0 0 0 0 0 0
0 0 0 0 0 0 0 0 0 0 0 0 0 0 0 0 0 0 0 0 0 0 0 0 0 0 0 0 0 0 0 0 0 0 0 0 0 0 0 0 0 0 0 0 0
0 0 0 0 0 0 0 0 0 0 0 0 0 0 0 0 0 0 0 0 0 0 0 0 0 0 0 0 0 0 0 0 0 0 0 0 0 0 0 0 0 0 0 0 0
Wind_Speed
14 14 13 13 13 14 14 14 14 15 16 16 16 16 17 17 19 17 17 15 15 12 14 15 17 17 17 17 18 16 17 18 19 14 16 17 15 17 18 17 19 21 18 19 20
13 13 13 14 14 13 13 14 15 15 16 16 16 16 16 18 18 16 16 17 17 15 14 14 16 16 18 12 17 13 14 19 14 15 17 19 17 18 18 17 19 19 20 20 22
12 12 12 12 12 12 13 14 15 15 16 16 15 16 16 17 14 14 14 17 18 14 15 16 17 16 14 9 14 10 9 10 13 15 17 18 19 21 18 20 17 18 19 20 20
12 11 11 11 12 12 13 13 13 14 14 15 15 16 16 15 14 15 14 17 15 15 17 16 13 16 14 11 10 8 10 9 16 16 16 21 21 21 20 15 13 15 15 17 16
12 11 11 12 12 13 13 13 14 14 14 15 15 16 15 15 13 17 17 14 14 14 13 15 17 17 11 10 11 11 12 12 15 16 16 16 19 18 20 11 12 15 16 15 15
14 14 12 12 13 13 14 14 14 15 15 15 15 16 16 15 14 16 16 15 15 13 15 15 14 16 12 12 10 12 13 12 13 14 15 17 17 19 19 11 13 15 16 12 12
13 14 14 14 14 14 14 15 15 16 16 16 17 18 16 15 15 16 17 18 16 17 18 17 17 15 15 14 15 14 17 19 13 9 12 15 22 18 25 12 11 14 17 11 13
12 12 13 14 15 16 16 17 17 17 17 17 19 18 17 12 18 18 19 20 17 18 18 19 18 15 14 15 15 16 16 19 15 6 13 11 19 20 28 17 15 18 18 12 13
11 11 12 13 14 16 17 17 18 19 19 13 16 18 18 19 14 15 17 17 18 19 19 18 15 13 16 14 15 17 17 19 19 14 15 18 21 30 31 25 21 17 12 8 10
13 12 12 13 14 15 15 14 11 19 15 13 15 18 17 16 13 18 16 16 17 20 18 13 13 14 16 13 13 16 18 19 18 23 17 23 29 31 32 32 31 24 9 7 9
15 14 14 14 14 15 18 20 20 17 17 13 16 14 23 14 16 15 15 17 18 17 17 17 13 16 10 11 12 17 20 19 17 24 22 29 33 38 37 33 26 16 6 7 11
16 15 14 14 14 15 20 20 17 18 19 8 8 4 6 15 17 18 15 18 19 18 20 14 15 9 11 14 17 16 20 23 22 29 28 32 33 36 37 27 25 15 13 13 16
18 17 16 16 17 20 15 11 7 15 16 17 9 11 10 13 18 10 16 20 18 18 17 14 10 10 14 16 16 19 20 23 25 29 22 29 25 34 29 26 24 22 18 19 18
20 19 19 18 18 20 19 8 13 17 18 15 12 14 10 13 17 12 17 17 16 19 19 14 16 14 14 16 18 20 22 24 27 28 22 28 26 27 26 25 24 21 19 19 20
22 20 19 17 17 22 21 22 21 17 20 13 12 13 11 10 12 15 16 16 17 18 17 15 17 16 16 18 19 20 23 27 25 23 22 24 23 21 22 23 22 20 19 19 21
24 22 21 17 17 17 18 22 18 18 19 12 12 12 14 8 9 10 15 17 19 18 19 21 24 17 15 16 18 20 28 28 24 19 20 23 27 23 19 17 17 18 20 21 23
25 23 17 15 15 25 25 18 16 17 21 14 13 10 10 9 6 6 10 19 20 18 19 20 18 15 16 18 22 25 29 29 23 26 23 25 28 21 16 15 16 18 20 22 24
24 20 14 10 7 24 21 16 14 16 18 19 20 15 10 16 6 6 11 19 17 15 15 17 15 19 23 19 21 23 24 25 29 27 30 27 25 20 15 14 17 18 19 22 24
22 18 17 15 15 19 18 15 13 17 18 20 22 22 23 25 10 10 12 18 16 16 12 15 16 20 22 20 22 24 26 23 27 27 30 25 19 18 14 17 19 20 21 24 27
23 19 15 14 15 20 17 15 15 17 17 19 19 20 22 23 19 19 17 18 15 15 15 17 22 21 20 22 19 22 23 26 24 29 32 27 23 21 28 24 21 22 22 23 25
21 19 15 18 17 19 16 14 18 17 18 19 20 22 21 21 20 21 18 17 14 16 17 19 20 20 25 21 23 28 24 23 21 22 30 34 26 20 32 26 23 23 22 23 27
22 18 20 20 18 17 18 22 21 18 20 19 18 21 18 20 21 20 18 18 17 17 22 21 21 24 25 29 20 13 20 22 24 25 25 28 33 27 22 23 20 22 24 26 28
24 18 21 19 18 20 22 21 22 21 21 21 20 20 21 21 21 19 18 16 18 19 17 20 23 27 28 21 22 19 21 25 25 23 26 30 31 25 22 20 21 24 26 29 30
22 22 19 19 17 20 24 23 26 25 23 18 20 23 21 21 21 22 18 18 18 18 18 20 19 19 22 22 23 25 28 30 26 28 30 27 30 26 24 23 25 27 30 30 34
24 21 20 22 23 26 22 22 26 24 20 19 19 22 21 20 21 20 20 17 19 16 19 20 21 19 19 21 23 23 23 25 25 25 25 27 21 22 24 25 27 28 29 34 37
23 22 24 26 24 26 23 23 30 19 19 20 18 20 20 18 19 21 19 19 19 17 19 19 22 20 23 20 21 23 23 25 25 22 19 20 23 21 24 27 32 30 32 35 37
24 22 21 23 26 24 20 30 19 15 18 17 17 21 22 19 19 20 18 16 15 18 19 20 20 23 25 24 26 22 22 26 25 25 21 25 23 22 27 32 33 30 33 37 42
Wind_Direction
284 279 271 259 261 267 270 272 275 279 283 285 287 287 288 287 280 299 229 141 122 153 206 202 185 240 265 262 269 281 280 286 297 314 307 311 322 326 350 359 8 6 15 15 11
276 274 276 276 271 267 269 276 282 290 298 298 294 286 286 290 284 236 187 180 192 243 263 261 206 247 192 301 264 285 297 296 306 318 311 314 319 335 339 353 351 355 358 7 6
267 264 262 262 261 264 275 285 291 302 308 301 287 281 279 285 289 260 295 155 189 293 281 262 252 264 116 64 293 332 328 329 324 331 324 310 322 328 338 333 349 344 345 349 360
266 260 256 250 245 248 250 256 268 284 289 285 282 278 274 306 342 209 207 160 182 187 226 236 324 310 157 241 238 37 30 357 317 322 340 309 320 319 331 354 36 18 9 359 8
280 262 256 252 243 240 245 248 254 266 274 278 278 282 319 321 313 188 198 204 220 207 197 176 236 278 106 349 359 339 328 348 332 326 337 339 329 344 334 27 25 18 10 5 14
302 292 269 251 246 247 249 251 253 257 265 271 278 284 331 338 233 169 177 247 254 263 302 8 355 247 356 330 342 339 338 344 345 334 335 335 340 345 349 18 4 359 357 8 12
295 292 296 286 264 254 250 247 246 248 256 265 282 314 335 358 341 155 238 261 252 305 320 287 293 320 312 316 318 334 321 307 327 21 357 352 327 346 333 12 3 353 348 3 0
285 282 281 284 285 277 265 255 250 249 247 262 316 343 330 313 233 294 287 291 220 286 300 290 287 320 346 331 333 334 337 333 342 21 342 356 348 349 335 360 353 345 346 353 357
285 272 267 269 272 272 266 257 252 263 249 21 350 346 324 285 355 349 332 320 302 291 303 309 325 327 318 338 337 336 334 329 335 341 334 328 326 316 327 342 343 345 347 353 2
296 282 271 268 270 271 264 231 217 284 357 21 355 336 339 349 360 340 328 311 321 302 320 348 340 338 331 335 336 332 331 334 347 339 347 328 316 328 331 332 331 338 357 6 10
304 290 281 275 274 286 308 350 355 8 3 7 344 351 311 345 344 339 334 331 323 326 321 324 332 328 357 7 358 340 332 332 347 337 341 330 330 326 328 335 340 350 20 18 17
304 291 282 275 270 274 10 24 42 10 353 25 172 59 30 342 331 320 340 328 322 317 320 335 328 359 356 344 336 348 336 324 325 320 335 331 332 337 338 353 352 13 25 25 24
303 290 282 274 278 16 47 74 102 321 11 359 41 9 2 341 330 352 337 325 315 318 331 337 2 355 340 335 339 334 336 329 327 327 350 346 347 347 4 18 19 21 36 28 23
305 292 287 280 18 343 32 222 47 21 4 12 23 14 11 341 326 346 335 330 321 317 316 330 328 334 342 333 330 328 326 325 324 332 337 347 339 355 4 12 19 22 20 16 14
306 291 291 7 27 352 347 293 4 20 356 32 31 19 29 13 353 333 339 331 315 316 325 314 319 327 332 326 327 326 329 326 333 338 343 347 346 347 1 1 6 9 10 9 2
307 296 313 7 14 28 273 327 15 17 7 38 32 33 11 56 6 351 338 332 323 316 317 305 295 317 325 339 339 335 322 328 336 345 340 345 344 341 346 353 356 358 0 358 354
307 299 349 2 14 327 311 8 13 18 359 15 9 24 43 62 107 15 358 331 315 314 303 307 317 319 326 325 327 332 332 329 336 334 337 341 338 340 350 355 354 353 355 357 354
303 323 28 53 91 296 350 7 8 8 1 358 344 357 13 350 32 17 351 330 321 327 321 319 325 316 309 333 334 338 340 334 328 328 327 336 333 343 360 4 356 357 360 357 353
302 12 13 32 23 7 356 359 15 356 350 339 331 324 319 304 346 335 340 322 321 319 338 333 334 323 333 341 339 332 331 339 328 329 328 336 346 350 5 351 350 352 352 352 350
357 12 23 27 19 358 352 359 356 352 350 346 341 335 318 310 316 307 317 313 322 330 338 328 323 332 333 337 345 344 342 331 334 328 327 332 333 329 334 337 341 341 345 348 349
359 11 24 7 1 349 343 351 345 346 345 340 336 327 323 316 318 309 316 316 329 323 332 334 331 331 331 335 332 329 333 337 336 333 327 327 332 341 330 333 337 343 348 349 349
351 0 1 357 352 351 334 327 328 334 333 336 338 328 329 324 312 314 316 317 323 326 320 328 332 327 329 326 333 340 344 344 333 329 329 326 324 336 342 344 351 352 351 350 348
344 357 2 6 347 332 319 321 330 331 330 330 328 326 323 321 314 320 318 323 323 327 334 333 330 327 329 340 347 345 339 338 334 333 325 324 327 344 354 355 356 351 349 347 347
345 342 347 356 0 338 320 314 311 315 323 335 327 320 316 317 319 315 323 325 327 333 337 339 338 337 331 334 338 331 329 328 331 325 324 323 330 341 347 349 349 348 346 345 342
337 343 343 333 327 320 327 326 315 318 322 327 331 331 321 316 314 315 324 322 326 335 335 337 333 337 338 338 336 334 335 333 328 323 320 334 339 345 347 346 345 345 344 341 339
335 336 327 322 323 317 322 322 305 327 328 322 329 334 331 326 317 313 322 325 322 329 332 336 333 339 334 339 341 335 337 338 336 341 343 342 340 346 347 345 340 342 341 339 339
331 331 328 323 317 319 324 309 326 336 333 335 331 321 317 321 323 321 322 321 322 322 326 331 333 335 334 342 340 346 353 343 346 344 340 333 338 343 342 341 342 343 343 339 337